Date String (YYYY-MM-DD hh:mm:ss) UTC,Instrument flags,Ambient pressure (hPa),Sample flow (lpm),Bypass flow (lpm),Sample temperature (°C),Ambient temperature (°C),ASC tube jacket temperature (°C),LED temperature (°C),Box temperature (°C),Sample RH (%),Span deviation,Mass concentration (μg/m³),Mass concentration (μg/m³),Mass concentration (μg/m³)
DateTimeUTC,F1_M11,P_M11,Q1_M11,Q2_M11,T1_M11,T2_M11,T3_M11,T4_M11,T5_M11,U1_M11,ZSPAN_M11,X0_M11,X2_M11,X1_M11
2022-12-25 22:00:00,,0824.1,5.05,0.00,21.8,20.6,00.0,30.6,23.6,15.3,0000.0,0000.63,0000.24,0000.20
2022-12-25 22:01:00,,0824.3,4.99,0.00,21.8,20.5,00.0,30.6,23.6,15.4,0000.0,0000.62,0000.24,0000.20
2022-12-25 22:02:00,,0824.4,4.97,0.00,21.8,20.5,00.0,30.6,23.5,15.5,0000.0,0000.62,0000.25,0000.20
2022-12-25 22:03:00,,0824.4,4.98,0.00,21.8,20.5,00.0,30.6,23.4,15.7,0000.0,0000.58,0000.24,0000.21
2022-12-25 22:04:00,,0824.4,4.99,0.00,21.8,20.5,00.0,30.6,23.5,16.0,0000.0,0000.59,0000.25,0000.21
2022-12-25 22:05:00,,0824.4,5.04,0.00,21.8,20.5,00.0,30.6,23.6,15.8,0000.0,0000.59,0000.25,0000.21
2022-12-25 22:06:00,,0824.7,5.00,0.00,21.8,20.5,00.0,30.6,23.5,15.3,0000.0,0000.58,0000.24,0000.21
2022-12-25 22:07:00,,0824.6,4.99,0.00,21.8,20.5,00.0,30.6,23.6,15.6,0000.0,0000.60,0000.25,0000.21
2022-12-25 22:08:00,,0824.6,4.96,0.00,21.8,20.5,00.0,30.7,23.6,15.8,0000.0,0000.61,0000.26,0000.22
2022-12-25 22:09:00,,0824.6,4.98,0.00,21.8,20.5,00.0,30.7,23.7,15.7,0000.0,0000.60,0000.25,0000.22
2022-12-25 22:10:00,,0824.8,4.99,0.00,21.8,20.5,00.0,30.7,23.5,15.5,0000.0,0000.51,0000.27,0000.22
2022-12-25 22:11:00,,0824.9,5.02,0.00,21.8,20.5,00.0,30.7,23.4,15.5,0000.0,0000.48,0000.29,0000.22
2022-12-25 22:12:00,,0824.9,5.03,0.00,21.8,20.5,00.0,30.7,23.5,15.5,0000.0,0000.51,0000.30,0000.23
2022-12-25 22:13:00,,0824.9,5.00,0.00,21.8,20.5,00.0,30.6,23.5,15.3,0000.0,0000.61,0000.29,0000.23
2022-12-25 22:14:00,,0824.9,4.99,0.00,21.8,20.6,00.0,30.6,23.5,15.8,0000.0,0001.05,0000.29,0000.23
2022-12-25 22:15:00,,0824.9,4.99,0.00,21.8,20.6,00.0,30.7,23.5,15.7,0000.0,0001.06,0000.30,0000.23
2022-12-25 22:16:00,,0824.8,5.04,0.00,21.8,20.6,00.0,30.7,23.6,15.2,0000.0,0001.08,0000.31,0000.24
2022-12-25 22:17:00,,0824.7,5.00,0.00,21.8,20.6,00.0,30.7,23.7,14.9,0000.0,0001.08,0000.31,0000.24
2022-12-25 22:18:00,,0824.7,4.97,0.00,21.8,20.6,00.0,30.7,23.6,14.8,0000.0,0001.06,0000.30,0000.24
2022-12-25 22:19:00,,0824.8,4.99,0.00,21.8,20.6,00.0,30.7,23.6,15.3,0000.0,0001.06,0000.30,0000.24
2022-12-25 22:20:00,,0824.9,5.02,0.00,21.8,20.6,00.0,30.7,23.6,15.4,0000.0,0001.06,0000.30,0000.24
2022-12-25 22:21:00,,0824.9,5.02,0.00,21.9,20.6,00.0,30.7,23.7,15.3,0000.0,0001.01,0000.28,0000.24
2022-12-25 22:22:00,,0824.9,4.98,0.00,21.9,20.7,00.0,30.7,23.6,14.8,0000.0,0000.97,0000.27,0000.25
2022-12-25 22:23:00,,0825.0,4.97,0.00,21.9,20.7,00.0,30.7,23.5,15.1,0000.0,0000.94,0000.26,0000.24
2022-12-25 22:24:00,,0825.0,5.01,0.00,21.9,20.7,00.0,30.7,23.5,15.4,0000.0,0000.76,0000.27,0000.25
2022-12-25 22:25:00,,0825.0,5.01,0.00,21.9,20.7,00.0,30.7,23.6,15.5,0000.0,0000.58,0000.27,0000.25
2022-12-25 22:26:00,,0825.0,5.02,0.00,21.9,20.7,00.0,30.7,23.7,15.9,0000.0,0001.47,0000.28,0000.26
2022-12-25 22:27:00,,0825.0,4.97,0.00,21.9,20.8,00.0,30.7,23.7,16.1,0000.0,0001.54,0000.29,0000.26
2022-12-25 22:28:00,,0825.1,4.98,0.00,21.9,20.8,00.0,30.7,23.7,15.8,0000.0,0001.56,0000.30,0000.26
2022-12-25 22:29:00,,0825.2,5.02,0.00,21.9,20.8,00.0,30.7,23.7,16.4,0000.0,0001.56,0000.30,0000.26
2022-12-25 22:30:00,,0825.2,5.03,0.00,21.9,20.8,00.0,30.7,23.8,15.8,0000.0,0001.56,0000.30,0000.26
2022-12-25 22:31:00,,0825.2,4.99,0.00,22.0,20.8,00.0,30.7,23.8,15.6,0000.0,0001.57,0000.31,0000.27
2022-12-25 22:32:00,,0825.1,4.98,0.00,22.0,20.8,00.0,30.8,23.8,15.8,0000.0,0001.58,0000.31,0000.27
2022-12-25 22:33:00,,0825.1,5.00,0.00,22.0,20.8,00.0,30.8,23.8,16.0,0000.0,0001.61,0000.32,0000.28
2022-12-25 22:34:00,,0825.1,5.04,0.00,22.0,20.8,00.0,30.8,23.9,16.0,0000.0,0001.63,0000.34,0000.28
2022-12-25 22:35:00,,0825.3,5.02,0.00,22.0,20.7,00.0,30.8,23.9,15.4,0000.0,0001.67,0000.35,0000.29
2022-12-25 22:36:00,,0825.4,4.98,0.00,22.0,20.7,00.0,30.8,23.7,15.1,0000.0,0001.52,0000.37,0000.29
2022-12-25 22:37:00,,0825.4,4.98,0.00,22.0,20.7,00.0,30.8,23.7,15.4,0000.0,0000.64,0000.37,0000.30
2022-12-25 22:38:00,,0825.4,5.00,0.00,22.0,20.7,00.0,30.8,23.8,15.5,0000.0,0000.57,0000.36,0000.30
2022-12-25 22:39:00,,0825.4,5.03,0.00,22.0,20.7,00.0,30.8,23.8,15.6,0000.0,0000.59,0000.37,0000.30
2022-12-25 22:40:00,,0825.4,5.02,0.00,22.0,20.7,00.0,30.8,23.8,16.2,0000.0,0000.60,0000.37,0000.31
2022-12-25 22:41:00,,0825.4,5.00,0.00,22.0,20.7,00.0,30.8,23.8,16.2,0000.0,0000.60,0000.37,0000.30
2022-12-25 22:42:00,,0825.3,4.97,0.00,22.0,20.7,00.0,30.8,23.8,16.3,0000.0,0000.65,0000.38,0000.30
2022-12-25 22:43:00,,0825.4,4.99,0.00,22.0,20.7,00.0,30.8,23.8,16.0,0000.0,0000.67,0000.40,0000.30
2022-12-25 22:44:00,,0825.4,5.02,0.00,22.0,20.7,00.0,30.8,23.8,15.8,0000.0,0000.71,0000.41,0000.30
2022-12-25 22:45:00,,0825.4,5.02,0.00,22.0,20.7,00.0,30.8,23.7,15.6,0000.0,0000.71,0000.41,0000.31
2022-12-25 22:46:00,,0825.4,4.99,0.00,22.0,20.7,00.0,30.8,23.8,15.8,0000.0,0000.69,0000.40,0000.31
2022-12-25 22:47:00,,0825.3,4.97,0.00,22.0,20.7,00.0,30.8,23.8,16.1,0000.0,0000.65,0000.38,0000.30
2022-12-25 22:48:00,,0825.3,4.97,0.00,22.0,20.7,00.0,30.8,23.8,15.7,0000.0,0000.62,0000.37,0000.30
2022-12-25 22:49:00,,0825.3,5.03,0.00,22.0,20.6,00.0,30.8,23.7,15.8,0000.0,0000.62,0000.38,0000.30
2022-12-25 22:50:00,,0825.3,5.03,0.00,22.0,20.6,00.0,30.8,23.7,16.0,0000.0,0000.61,0000.37,0000.30
2022-12-25 22:51:00,,0825.3,5.01,0.00,22.0,20.6,00.0,30.8,23.7,16.0,0000.0,0000.59,0000.36,0000.30
2022-12-25 22:52:00,,0825.3,4.98,0.00,21.9,20.6,00.0,30.8,23.7,15.6,0000.0,0000.59,0000.36,0000.30
2022-12-25 22:53:00,,0825.4,4.99,0.00,21.9,20.6,00.0,30.8,23.6,15.1,0000.0,0000.56,0000.36,0000.31
2022-12-25 22:54:00,,0825.4,5.00,0.00,21.9,20.6,00.0,30.8,23.6,15.6,0000.0,0000.59,0000.35,0000.31
2022-12-25 22:55:00,,0825.3,5.03,0.00,21.9,20.6,00.0,30.8,23.6,15.8,0000.0,0000.58,0000.35,0000.31
2022-12-25 22:56:00,,0825.3,5.02,0.00,21.9,20.5,00.0,30.8,23.6,16.1,0000.0,0000.53,0000.34,0000.31
2022-12-25 22:57:00,,0825.1,4.98,0.00,21.9,20.5,00.0,30.8,23.7,15.7,0000.0,0000.53,0000.33,0000.31
2022-12-25 22:58:00,,0825.2,4.98,0.00,21.9,20.5,00.0,30.8,23.7,15.4,0000.0,0000.53,0000.34,0000.31
2022-12-25 22:59:00,,0825.1,4.97,0.00,21.9,20.5,00.0,30.8,23.7,15.5,0000.0,0000.53,0000.34,0000.31
